Location: Borojevi?i
(45.0486°N, 16.2297°E)
Time: 21:13:00
(UTC+00:00)

Cosmos 1570 Rocket - Pass Details

Date: 08 August 2020
Orbit: 762 x 789 km, 74.1° (Epoch: 21 September)

Event Time Altitude Azimuth Distance (km) Brightness Sun altitude
Rises 21:45:36 0° 337° (NNW) 3,269 8.6 -26.8°
Reaches altitude 10° 21:48:00 10° 335° (NNW) 2,341 7.5 -27.0°
Enters shadow 21:53:11 73° 264° (W) 822 4.0 -27.3°
